FREGAT DEB, 45974

Orbit data source: Space-Track

FREGAT DEB, 45974 is space debris in LEO originally from a launch on Mon, 18 Jul 2011 UTC launched from the Tyuratam Missile And Space Complex (TTMTR). Debris objects in space refer to the collection of defunct objects orbiting the Earth. Examples of debris include non-operational satellites, rocket bodies, and fragments generated from explosions, collisions, or faulty payload assembly.

Loading next visibility...
Identifier
45974, 2011-037GF
Orbit
LEO
Country
Flag of CISCIS
Related business
Manufacturer
Lavochkin
Mission
Spacecraft
Bus & Motor
Unknown
Mass
Unknown
Launch date (UTC)
2011-07-18 (15 years ago)
Launch vehicle
Unknown
Launch site
Tyuratam Missile And Space Complex (TTMTR)
Object type
Payload
Rocket body
Debris
Shape & HBR
Unknown shape, 0.1 m
Radar Cross Section
Medium (>0.1 m² and <1 m²)

Expand to show TLE details & history
Last TLE update: 14 hours ago

TLE from 14 hours ago
0 FREGAT DEB
1 45974U 11037GF  26255.07153341  .00000428  00000-0  58566-3 0  9992
2 45974  51.4723 287.7120 2161997  27.8646 342.2736 10.29123500230036
Epoch: 2026-09-12T01:43Z
TLE epoch observation values (Epoch: 2026-09-12T01:43:00.486Z)
Latitude
-0.0001°
Longitude
-89.1259°
Altitude
766.52 km
Speed
8.183 km/s
True Right ascension
19h 10m 50s
True Declination
0° 00' 00"
Sunlit
Object was in full shadow at epoch
Visualization orbit readout
Latitude
Unknown
Longitude
Unknown
Altitude
Unknown
Speed
Unknown
Apparent Right ascension
Unknown
Apparent Declination
Unknown
Sunlit
N/A
Visualization observer readout
Local Sidereal Time
08:02:33
Azimuth
Unknown
Elevation
Unknown
Doppler factor
Unknown
Orbital elements
Apogee altitude
4,480.696 km
Perigee altitude
620.02 km
Semi-major axis
8,928.495 km
Eccentricity
0.2162
Inclination
51.4723°
RAAN
287.712°
Arg. of periapsis
27.8646°
True anomaly
332.21794°
Mean anomaly
342.2736°
Eccentric anomaly
337.54146°
Mean motion
2.57262 °/min
Orbital period
139.94 mins
BSTAR
0.00058566
Loading maneuver chart data...
Computing Atmospheric mass density...
Loading historical data...
Loading historical data...
Loading historical data...
Loading historical data...
Loading historical data...
Loading historical data...
Loading historical data...

Documentation

Showing up to 5 results
|